Home > Weather > Winamac > Past weeks

Flag for USA Past Weather in Winamac, Indiana, USA — Yesterday and Last 2 Weeks

Now
89 °F

Passing clouds.


Feels Like: 100 °F
Forecast: 72 / 88 °F
Wind: 10 mph from Southwest

Location: Porter County Municipal Airport

Current Time: Jul 23, 2016 at 7:13:02 PM

Latest Report: Jul 23, 2016 at 5:56 PM


Visibility: 10 mi

Pressure: 29.93 "Hg

Humidity: 65%

Dew Point: 76 °F

Location of WinamacLocation

Past Weather in Winamac — Graph

°F

Winamac Temperature Yesterday

Maximum temperature yesterday: 88 °F (at 6:56 PM)
Minimum temperature yesterday: 70 °F (at 5:56 AM)
Average temperature yesterday: 79 °F

High & Low Weather Summary for the Past Weeks

 TemperatureHumidityPressure
High91 °F (Jul 23, 2:56 PM)100% (Jul 13, 6:56 AM)30.25 "Hg (Jul 13, 6:56 AM)
Low55 °F (Jul 17, 3:56 AM)31% (Jul 8, 5:56 PM)29.78 "Hg (Jul 13, 6:56 PM)
Average75 °F74%30.02 "Hg
* Reported Jul 8 5:56 PM — Jul 23 5:56 PM, Winamac, Weather by CustomWeather, © 2016

Note: Actual official high and low records may vary slightly from our data, if they occured in-between our weather recording intervals... More about our weather records

Advertising

Winamac Weather History for the Previous 24 Hours

Scroll right to see more
 ConditionsComfort  
Time TempWeatherWind HumidityBarometerVisibility
5:56 PM
Sat, Jul 23
89 °FPassing clouds.10 mph65%29.93 "Hg10 mi
4:56 PM89 °FPassing clouds.10 mph65%29.93 "Hg10 mi
3:56 PM90 °FPassing clouds.10 mph63%29.96 "Hg10 mi
2:56 PM91 °FPartly sunny.13 mph61%29.98 "Hg10 mi
1:56 PM89 °FScattered clouds.9 mph65%29.97 "Hg10 mi
12:56 PM88 °FBroken clouds.3 mph67%29.98 "Hg10 mi
12:03 PM86 °FScattered clouds.5 mph72%30.01 "Hg10 mi
11:56 AM88 °FBroken clouds.5 mph67%29.99 "Hg10 mi
10:56 AM85 °FBroken clouds.3 mph75%29.98 "Hg10 mi
9:56 AM84 °FPartly sunny.No wind77%29.98 "Hg10 mi
8:56 AM81 °FSunny.5 mph82%29.99 "Hg10 mi
7:56 AM77 °FLight rain. Partly sunny.3 mph90%29.99 "Hg10 mi
6:56 AM75 °FLight rain. Sunny.3 mph94%29.98 "Hg10 mi
5:56 AM75 °FPassing clouds.3 mph90%29.97 "Hg10 mi
4:56 AM74 °FClear.No wind94%29.98 "Hg10 mi
3:56 AM76 °FPassing clouds.3 mph91%29.99 "Hg10 mi
2:56 AM76 °FClear.5 mph91%29.99 "Hg10 mi
1:56 AM76 °FPassing clouds.5 mph91%29.99 "Hg10 mi
12:56 AM77 °FPassing clouds.6 mph88%30.00 "Hg10 mi
11:56 PM
Fri, Jul 22
78 °FPassing clouds.5 mph84%29.99 "Hg10 mi
10:56 PM79 °FClear.5 mph84%29.99 "Hg10 mi
9:56 PM78 °FClear.3 mph87%29.97 "Hg10 mi
8:56 PM82 °FSunny.6 mph77%29.97 "Hg10 mi
7:56 PM84 °FPartly sunny.8 mph72%29.97 "Hg10 mi
Weather by CustomWeather, © 2016

See weather overviewHow to use our weather pages